�������l�o���
Date,Time,MP-1(��Sv/h),MP-2(��Sv/h),MP-3(��Sv/h),MP-4(��Sv/h),MP-5(��Sv/h),MP-6(��Sv/h),MP-7(��Sv/h),MP-8(��Sv/h),����,����(m/s),���J
2016/10/05,00:00,1.148,1.907,1.354,2.087,1.465,0.603,1.071,0.985,���k��,6.4,��
2016/10/05,00:10,1.146,1.908,1.360,2.087,1.467,0.603,1.071,0.987,�k��,5.2,��
2016/10/05,00:20,1.148,1.910,1.360,2.083,1.465,0.604,1.069,0.985,�k��,4.1,��
2016/10/05,00:30,1.147,1.909,1.357,2.084,1.465,0.603,1.069,0.986,�k,0.7,��
2016/10/05,00:40,1.146,1.908,1.356,2.086,1.468,0.601,1.070,0.983,�k,3.0,��
2016/10/05,00:50,1.148,1.909,1.358,2.086,1.465,0.603,1.070,0.986,�k,4.1,��
2016/10/05,01:00,1.146,1.908,1.355,2.082,1.467,0.601,1.070,0.984,�k�k��,3.1,��
2016/10/05,01:10,1.146,1.908,1.355,2.084,1.465,0.601,1.069,0.984,�k�k��,2.6,��
2016/10/05,01:20,1.144,1.909,1.360,2.083,1.466,0.602,1.068,0.981,�k,3.2,��
2016/10/05,01:30,1.145,1.909,1.355,2.086,1.466,0.602,1.069,0.985,�k,3.6,��
2016/10/05,01:40,1.146,1.907,1.357,2.085,1.466,0.604,1.067,0.984,�k,4.1,��
2016/10/05,01:50,1.143,1.907,1.355,2.084,1.464,0.601,1.068,0.986,�k,4.4,��
2016/10/05,02:00,1.144,1.908,1.356,2.086,1.467,0.602,1.068,0.984,�k,4.2,��
2016/10/05,02:10,1.143,1.903,1.356,2.083,1.466,0.601,1.068,0.983,�k,3.8,��
2016/10/05,02:20,1.145,1.908,1.357,2.083,1.468,0.602,1.069,0.986,�k�k��,3.9,��
2016/10/05,02:30,1.145,1.910,1.356,2.089,1.465,0.603,1.067,0.985,�k�k��,3.8,��
2016/10/05,02:40,1.145,1.909,1.357,2.084,1.465,0.602,1.070,0.984,�k�k��,4.4,��
2016/10/05,02:50,1.143,1.908,1.353,2.084,1.465,0.602,1.068,0.985,�k,4.7,��
2016/10/05,03:00,1.143,1.905,1.353,2.088,1.462,0.601,1.069,0.984,�k,4.1,��
2016/10/05,03:10,1.143,1.908,1.356,2.084,1.467,0.600,1.067,0.985,�k,4.1,��
2016/10/05,03:20,1.144,1.905,1.356,2.082,1.463,0.602,1.068,0.984,�k,3.8,��
2016/10/05,03:30,1.142,1.906,1.356,2.084,1.462,0.603,1.067,0.986,�k,4.1,��
2016/10/05,03:40,1.144,1.906,1.355,2.087,1.465,0.602,1.067,0.982,�k�k��,4.4,��
2016/10/05,03:50,1.142,1.907,1.355,2.085,1.464,0.600,1.067,0.985,�k�k��,4.4,��
2016/10/05,04:00,1.143,1.908,1.354,2.086,1.464,0.600,1.068,0.982,�k�k��,4.1,��
2016/10/05,04:10,1.142,1.907,1.356,2.087,1.465,0.601,1.067,0.985,�k�k��,4.6,��
2016/10/05,04:20,1.143,1.909,1.354,2.082,1.461,0.604,1.066,0.986,�k�k��,4.4,��
2016/10/05,04:30,1.143,1.907,1.355,2.084,1.464,0.601,1.067,0.986,�k�k��,5.2,��
2016/10/05,04:40,1.145,1.907,1.356,2.084,1.466,0.601,1.068,0.986,�k�k��,4.9,��
2016/10/05,04:50,1.145,1.907,1.356,2.088,1.465,0.603,1.067,0.985,�k��,4.6,��
2016/10/05,05:00,1.143,1.910,1.357,2.085,1.465,0.602,1.067,0.984,�k�k��,4.6,��
2016/10/05,05:10,1.142,1.909,1.356,2.088,1.465,0.601,1.067,0.985,�k��,3.8,��
2016/10/05,05:20,1.145,1.904,1.354,2.084,1.467,0.600,1.067,0.987,�k��,3.6,��
2016/10/05,05:30,1.144,1.905,1.356,2.084,1.466,0.600,1.067,0.986,�k��,3.0,��
2016/10/05,05:40,1.146,1.910,1.357,2.087,1.466,0.602,1.066,0.987,�k�k��,2.8,��
2016/10/05,05:50,1.144,1.905,1.356,2.084,1.469,0.601,1.069,0.983,�k�k��,3.2,��
2016/10/05,06:00,1.144,1.908,1.356,2.086,1.465,0.601,1.068,0.983,�k�k��,2.7,��
2016/10/05,06:10,1.142,1.911,1.356,2.086,1.464,0.600,1.067,0.985,�k�k��,2.2,��
2016/10/05,06:20,1.144,1.907,1.356,2.086,1.466,0.601,1.067,0.986,�k��,2.5,��
2016/10/05,06:30,1.142,1.907,1.357,2.088,1.465,0.601,1.068,0.985,�k��,2.4,��
2016/10/05,06:40,1.147,1.908,1.356,2.088,1.467,0.598,1.068,0.985,�k��,1.7,��
2016/10/05,06:50,1.144,1.912,1.355,2.086,1.465,0.599,1.067,0.984,�k��,2.0,��
2016/10/05,07:00,1.145,1.912,1.353,2.087,1.469,0.601,1.067,0.985,�k�k��,1.8,��
2016/10/05,07:10,1.146,1.910,1.358,2.088,1.463,0.602,1.068,0.986,�k�k��,2.5,��
2016/10/05,07:20,1.144,1.910,1.357,2.086,1.467,0.601,1.064,0.985,�k�k��,1.9,��
2016/10/05,07:30,1.145,1.909,1.355,2.086,1.465,0.601,1.066,0.985,�k�k��,2.1,��
2016/10/05,07:40,1.144,1.908,1.352,2.089,1.466,0.601,1.065,0.987,�k�k��,1.7,��
2016/10/05,07:50,1.143,1.908,1.347,2.087,1.467,0.601,1.066,0.986,�k�k��,1.5,��
2016/10/05,08:00,1.145,1.908,1.357,2.088,1.466,0.601,1.066,0.987,�k��,1.7,��
2016/10/05,08:10,1.145,1.905,1.356,2.088,1.465,0.602,1.066,0.985,�k��,1.6,��
2016/10/05,08:20,1.144,1.905,1.355,2.088,1.467,0.601,1.066,0.987,�k�k��,1.6,��
2016/10/05,08:30,1.144,1.910,1.356,2.087,1.466,0.601,1.068,0.983,�k��,2.0,��
2016/10/05,08:40,1.144,1.910,1.359,2.086,1.466,0.598,1.066,0.984,���k��,2.2,��
2016/10/05,08:50,1.144,1.905,1.357,2.085,1.465,0.602,1.067,0.985,�k��,2.3,��
2016/10/05,09:00,1.147,1.907,1.358,2.091,1.467,0.599,1.065,0.984,�k�k��,1.2,��
2016/10/05,09:10,1.145,1.909,1.360,2.086,1.467,0.599,1.067,0.984,��쓌,1.0,��
2016/10/05,09:20,1.145,1.909,1.358,2.090,1.465,0.600,1.067,0.984,��,1.3,��
2016/10/05,09:30,1.146,1.910,1.358,2.092,1.466,0.599,1.068,0.983,�쐼,1.2,��
2016/10/05,09:40,1.141,1.909,1.356,2.095,1.466,0.598,1.068,0.983,���쓌,1.8,��
2016/10/05,09:50,1.142,1.908,1.356,2.095,1.468,0.601,1.069,0.983,��,2.5,��
2016/10/05,10:00,1.144,1.909,1.358,2.089,1.467,0.601,1.067,0.983,���쓌,2.1,��
2016/10/05,10:10,1.146,1.908,1.357,2.092,1.468,0.600,1.067,0.983,���쓌,1.9,��
2016/10/05,10:20,1.145,1.906,1.356,2.093,1.470,0.601,1.068,0.984,���쓌,2.4,��
2016/10/05,10:30,1.147,1.905,1.357,2.093,1.471,0.599,1.068,0.983,��쓌,2.7,��
2016/10/05,10:40,1.148,1.908,1.358,2.092,1.471,0.599,1.070,0.984,�쓌,2.5,��
2016/10/05,10:50,1.150,1.913,1.358,2.095,1.466,0.600,1.069,0.984,��쓌,2.3,��
2016/10/05,11:00,1.148,1.914,1.359,2.094,1.469,0.601,1.067,0.984,�쓌,2.1,��
2016/10/05,11:10,1.145,1.912,1.361,2.091,1.472,0.602,1.071,0.985,��쓌,2.3,��
2016/10/05,11:20,1.149,1.914,1.362,2.090,1.472,0.600,1.068,0.984,��쓌,3.1,��
2016/10/05,11:30,1.148,1.913,1.360,2.090,1.470,0.601,1.069,0.982,��쓌,2.5,��
2016/10/05,11:40,1.147,1.915,1.359,2.092,1.473,0.601,1.069,0.983,�쓌,2.7,��
2016/10/05,11:50,1.148,1.915,1.358,2.096,1.471,0.603,1.069,0.982,��쓌,2.8,��
2016/10/05,12:00,1.148,1.918,1.359,2.093,1.471,0.601,1.068,0.983,�쓌,2.6,��
2016/10/05,12:10,1.147,1.914,1.359,2.095,1.474,0.603,1.068,0.985,�쓌,2.8,��
2016/10/05,12:20,1.148,1.912,1.358,2.095,1.471,0.602,1.069,0.984,�쓌,2.8,��
2016/10/05,12:30,1.148,1.906,1.363,2.095,1.475,0.603,1.071,0.984,�쓌,2.8,��
2016/10/05,12:40,1.148,1.902,1.361,2.097,1.474,0.603,1.069,0.984,��쓌,2.8,��
2016/10/05,12:50,1.151,1.907,1.359,2.093,1.475,0.603,1.070,0.983,�쓌,2.8,��
2016/10/05,13:00,1.148,1.904,1.362,2.092,1.473,0.603,1.070,0.983,�쓌,2.4,��
2016/10/05,13:10,1.149,1.912,1.360,2.096,1.474,0.605,1.071,0.985,��쓌,2.1,��
2016/10/05,13:20,1.151,1.913,1.357,2.097,1.476,0.604,1.068,0.983,��쓌,2.6,��
2016/10/05,13:30,1.148,1.909,1.358,2.095,1.475,0.603,1.068,0.982,�쓌,2.2,��
2016/10/05,13:40,1.149,1.913,1.359,2.096,1.474,0.603,1.070,0.985,�쓌,3.3,��
2016/10/05,13:50,1.150,1.916,1.358,2.096,1.476,0.603,1.071,0.985,��쓌,4.1,��
2016/10/05,14:00,1.150,1.916,1.361,2.095,1.476,0.604,1.070,0.986,��쓌,3.2,��
2016/10/05,14:10,1.148,1.912,1.361,2.095,1.473,0.605,1.069,0.986,��,3.8,��
2016/10/05,14:20,1.149,1.915,1.362,2.098,1.473,0.603,1.070,0.986,��,3.8,��
2016/10/05,14:30,1.151,1.915,1.365,2.095,1.474,0.604,1.070,0.986,��,3.5,��
2016/10/05,14:40,1.151,1.920,1.362,2.099,1.475,0.603,1.070,0.986,��,2.7,��
2016/10/05,14:50,1.152,1.918,1.365,2.098,1.474,0.605,1.069,0.985,��,2.8,��
2016/10/05,15:00,1.151,1.917,1.364,2.096,1.476,0.605,1.069,0.985,��쓌,2.9,��
2016/10/05,15:10,1.151,1.916,1.365,2.096,1.474,0.605,1.070,0.986,��쓌,2.5,��
2016/10/05,15:20,1.152,1.917,1.366,2.098,1.475,0.607,1.069,0.987,��,3.8,��
2016/10/05,15:30,1.148,1.915,1.366,2.096,1.477,0.605,1.071,0.986,��쐼,4.1,��
2016/10/05,15:40,1.149,1.917,1.365,2.098,1.475,0.606,1.068,0.986,��쐼,3.6,��
2016/10/05,15:50,1.151,1.918,1.366,2.097,1.477,0.607,1.069,0.986,��,3.3,��
2016/10/05,16:00,1.151,1.922,1.363,2.100,1.479,0.606,1.069,0.986,��,3.8,��
2016/10/05,16:10,1.153,1.921,1.366,2.096,1.476,0.606,1.070,0.987,��쐼,3.0,��
2016/10/05,16:20,1.151,1.918,1.368,2.095,1.477,0.605,1.069,0.987,��,2.5,��
2016/10/05,16:30,1.151,1.920,1.367,2.099,1.477,0.607,1.069,0.986,��,3.1,��
2016/10/05,16:40,1.153,1.922,1.367,2.099,1.479,0.605,1.070,0.986,��,3.6,��
2016/10/05,16:50,1.154,1.923,1.368,2.099,1.477,0.607,1.071,0.986,��쐼,3.8,��
2016/10/05,17:00,1.155,1.923,1.366,2.097,1.478,0.609,1.071,0.989,��쐼,4.1,��
2016/10/05,17:10,1.154,1.924,1.368,2.098,1.477,0.607,1.070,0.988,��쐼,4.5,��
2016/10/05,17:20,1.154,1.922,1.366,2.098,1.475,0.607,1.072,0.989,��,7.4,��
2016/10/05,17:30,1.155,1.921,1.365,2.097,1.478,0.607,1.070,0.989,��,7.7,��
2016/10/05,17:40,1.154,1.922,1.368,2.098,1.479,0.606,1.070,0.990,��,8.5,��
2016/10/05,17:50,1.158,1.920,1.366,2.097,1.478,0.608,1.070,0.986,��,7.5,��
2016/10/05,18:00,1.155,1.922,1.364,2.099,1.482,0.608,1.073,0.989,��,7.4,��
2016/10/05,18:10,1.154,1.922,1.367,2.097,1.480,0.608,1.072,0.988,��,7.2,�L
2016/10/05,18:20,1.153,1.923,1.369,2.102,1.478,0.608,1.073,0.987,��,10.4,��
2016/10/05,18:30,1.155,1.923,1.369,2.100,1.477,0.610,1.071,0.990,��,11.6,��
2016/10/05,18:40,1.156,1.922,1.367,2.103,1.480,0.608,1.073,0.989,��,12.9,��
2016/10/05,18:50,1.154,1.922,1.368,2.101,1.480,0.607,1.072,0.990,��,11.3,��
2016/10/05,19:00,1.154,1.920,1.369,2.102,1.480,0.608,1.072,0.989,��,11.2,��
2016/10/05,19:10,1.154,1.923,1.368,2.098,1.481,0.608,1.073,0.988,��,9.3,��
2016/10/05,19:20,1.155,1.925,1.370,2.103,1.481,0.607,1.074,0.989,��,7.7,��
2016/10/05,19:30,1.156,1.920,1.369,2.100,1.480,0.607,1.074,0.990,��,7.2,��
2016/10/05,19:40,1.155,1.926,1.368,2.102,1.481,0.609,1.072,0.989,��,6.9,��
2016/10/05,19:50,1.156,1.921,1.365,2.100,1.481,0.609,1.072,0.989,��,6.4,��
2016/10/05,20:00,1.156,1.922,1.370,2.099,1.479,0.608,1.073,0.989,��,5.8,��
2016/10/05,20:10,1.155,1.921,1.367,2.101,1.479,0.609,1.073,0.989,��,6.6,��
2016/10/05,20:20,1.153,1.924,1.368,2.100,1.480,0.609,1.073,0.990,��,5.2,��
2016/10/05,20:30,1.157,1.922,1.368,2.102,1.480,0.608,1.073,0.991,��,3.8,��
2016/10/05,20:40,1.155,1.923,1.367,2.101,1.477,0.609,1.073,0.990,��쓌,3.0,��
2016/10/05,20:50,1.155,1.924,1.371,2.101,1.479,0.611,1.075,0.989,��쓌,3.0,��
2016/10/05,21:00,1.156,1.923,1.368,2.102,1.480,0.610,1.074,0.990,�쓌,4.5,��
2016/10/05,21:10,1.156,1.920,1.370,2.103,1.482,0.609,1.075,0.989,��쓌,4.5,��
2016/10/05,21:20,1.155,1.921,1.374,2.099,1.479,0.607,1.073,0.990,��쓌,6.4,��
2016/10/05,21:30,1.155,1.921,1.371,2.102,1.478,0.608,1.075,0.991,��쓌,8.0,��
2016/10/05,21:40,1.156,1.922,1.372,2.099,1.478,0.611,1.073,0.991,��쓌,9.1,��
2016/10/05,21:50,1.156,1.925,1.372,2.102,1.479,0.609,1.073,0.992,��쓌,10.2,��
2016/10/05,22:00,1.156,1.925,1.370,2.102,1.480,0.609,1.074,0.990,��,9.7,��
2016/10/05,22:10,1.155,1.922,1.368,2.104,1.479,0.610,1.075,0.991,��,9.9,��
2016/10/05,22:20,1.156,1.924,1.370,2.105,1.476,0.609,1.074,0.990,��,9.7,��
2016/10/05,22:30,1.156,1.923,1.370,2.102,1.480,0.610,1.073,0.989,��,10.7,��
2016/10/05,22:40,1.157,1.923,1.370,2.105,1.480,0.609,1.073,0.986,��,10.2,��
2016/10/05,22:50,1.155,1.922,1.370,2.104,1.480,0.607,1.075,0.988,��,13.0,��
2016/10/05,23:00,1.159,1.922,1.372,2.105,1.482,0.609,1.074,0.989,��,13.0,��
2016/10/05,23:10,1.156,1.920,1.371,2.105,1.481,0.611,1.075,0.988,��,15.1,��
2016/10/05,23:20,1.157,1.921,1.372,2.106,1.480,0.610,1.075,0.989,��,13.3,��
2016/10/05,23:30,1.156,1.919,1.371,2.101,1.482,0.611,1.074,0.991,��,11.6,��
2016/10/05,23:40,1.159,1.920,1.373,2.104,1.478,0.609,1.076,0.991,��,12.4,��
2016/10/05,23:50,1.159,1.924,1.369,2.105,1.480,0.609,1.076,0.990,��,12.9,��
